Tiempo cada hora Goianésia

Hoy, 14 Mayo, Viernes

Tiempo Temperatura Precipitaciones Viento Presión Humedad
00:00 +21°C° 0 mm 1 mps 706 mmHg 59%
01:00 +20°C° 0 mm 1 mps 705 mmHg 61%
02:00 +20°C° 0 mm 1 mps 705 mmHg 62%
03:00 +19°C° 0 mm 1 mps 705 mmHg 63%
04:00 +19°C° 0 mm 1 mps 705 mmHg 64%
05:00 +19°C° 0 mm 1 mps 705 mmHg 65%
06:00 +18°C° 0 mm 1 mps 706 mmHg 65%
07:00 +21°C° 0 mm 1 mps 706 mmHg 59%
08:00 +23°C° 0 mm 1 mps 707 mmHg 53%
09:00 +26°C° 0 mm 1 mps 707 mmHg 47%
10:00 +27°C° 0 mm 1 mps 707 mmHg 42%
11:00 +29°C° 0 mm 2 mps 707 mmHg 37%
12:00 +31°C° 0 mm 2 mps 707 mmHg 32%
13:00 +31°C° 0 mm 2 mps 707 mmHg 31%
14:00 +32°C° 0 mm 1 mps 706 mmHg 31%
15:00 +32°C° 0 mm 1 mps 705 mmHg 30%
16:00 +30°C° 0 mm 1 mps 705 mmHg 36%
17:00 +27°C° 0 mm 1 mps 705 mmHg 42%
18:00 +25°C° 0 mm 1 mps 704 mmHg 48%
19:00 +24°C° 0 mm 1 mps 705 mmHg 50%
20:00 +23°C° 0 mm 1 mps 705 mmHg 51%
21:00 +22°C° 0 mm 1 mps 706 mmHg 53%
22:00 +22°C° 0 mm 1 mps 706 mmHg 55%
23:00 +21°C° 0 mm 1 mps 705 mmHg 56%

Mañana, 15 Mayo, Sábado

Tiempo Temperatura Precipitaciones Viento Presión Humedad
00:00 +21°C° 0 mm 1 mps 705 mmHg 58%
01:00 +20°C° 0 mm 1 mps 705 mmHg 59%
02:00 +20°C° 0 mm 1 mps 705 mmHg 60%
03:00 +19°C° 0 mm 1 mps 704 mmHg 61%
04:00 +19°C° 0 mm 1 mps 705 mmHg 62%
05:00 +19°C° 0 mm 1 mps 705 mmHg 62%
06:00 +19°C° 0 mm 1 mps 705 mmHg 63%
07:00 +21°C° 0 mm 1 mps 706 mmHg 57%
08:00 +23°C° 0 mm 2 mps 707 mmHg 51%
09:00 +26°C° 0 mm 2 mps 707 mmHg 45%
10:00 +27°C° 0 mm 2 mps 707 mmHg 41%
11:00 +29°C° 0 mm 2 mps 707 mmHg 37%
12:00 +31°C° 0 mm 3 mps 707 mmHg 33%
13:00 +31°C° 0 mm 2 mps 707 mmHg 32%
14:00 +31°C° 0 mm 1 mps 706 mmHg 30%
15:00 +30°C° 0 mm 0 mps 705 mmHg 29%
16:00 +28°C° 0 mm 0 mps 705 mmHg 35%
17:00 +25°C° 0 mm 0 mps 705 mmHg 41%
18:00 +25°C° 0 mm 1 mps 705 mmHg 47%
19:00 +22°C° 0 mm 0 mps 705 mmHg 48%
20:00 +22°C° 0 mm 0 mps 705 mmHg 50%
21:00 +21°C° 0 mm 0 mps 706 mmHg 51%
22:00 +22°C° 0 mm 1 mps 706 mmHg 52%
23:00 +22°C° 0 mm 1 mps 706 mmHg 53%

Pasado mañana, 16 Mayo, Domingo

Tiempo Temperatura Precipitaciones Viento Presión Humedad
00:00 +21°C° 0 mm 1 mps 706 mmHg 54%
01:00 +21°C° 0 mm 1 mps 706 mmHg 56%
02:00 +21°C° 0 mm 1 mps 705 mmHg 58%
03:00 +20°C° 0 mm 1 mps 705 mmHg 60%
04:00 +20°C° 0 mm 1 mps 705 mmHg 61%
05:00 +20°C° 0 mm 1 mps 705 mmHg 62%
06:00 +20°C° 0 mm 1 mps 705 mmHg 62%
07:00 +22°C° 0 mm 1 mps 706 mmHg 58%
08:00 +23°C° 0 mm 1 mps 707 mmHg 53%
09:00 +25°C° 0 mm 1 mps 707 mmHg 49%
10:00 +28°C° 0 mm 1 mps 707 mmHg 43%
11:00 +30°C° 0 mm 1 mps 707 mmHg 37%
12:00 +32°C° 0 mm 1 mps 707 mmHg 31%
13:00 +32°C° 0 mm 1 mps 707 mmHg 31%
14:00 +32°C° 0 mm 1 mps 706 mmHg 30%
15:00 +32°C° 0 mm 1 mps 706 mmHg 30%
16:00 +30°C° 0 mm 1 mps 705 mmHg 35%
17:00 +28°C° 0 mm 1 mps 705 mmHg 41%
18:00 +24°C° 0 mm 0 mps 705 mmHg 46%
19:00 +23°C° 0 mm 0 mps 705 mmHg 46%
20:00 +23°C° 0 mm 0 mps 706 mmHg 47%
21:00 +22°C° 0 mm 0 mps 706 mmHg 47%
22:00 +24°C° 0 mm 1 mps 706 mmHg 49%
23:00 +23°C° 0 mm 1 mps 706 mmHg 50%

17 Mayo, Lunes

Tiempo Temperatura Precipitaciones Viento Presión Humedad
00:00 +23°C° 0 mm 1 mps 706 mmHg 51%
01:00 +22°C° 0 mm 1 mps 706 mmHg 53%
02:00 +22°C° 0 mm 1 mps 705 mmHg 54%
03:00 +20°C° 0 mm 0 mps 705 mmHg 55%
04:00 +20°C° 0 mm 0 mps 705 mmHg 56%
05:00 +19°C° 0 mm 0 mps 706 mmHg 57%
06:00 +19°C° 0 mm 0 mps 706 mmHg 58%
07:00 +21°C° 0 mm 0 mps 706 mmHg 54%
08:00 +23°C° 0 mm 0 mps 707 mmHg 51%
09:00 +25°C° 0 mm 0 mps 708 mmHg 47%
10:00 +27°C° 0 mm 0 mps 708 mmHg 42%
11:00 +29°C° 0 mm 0 mps 708 mmHg 38%
12:00 +31°C° 0 mm 0 mps 708 mmHg 34%
13:00 +33°C° 0 mm 1 mps 707 mmHg 33%
14:00 +33°C° 0 mm 1 mps 706 mmHg 32%
15:00 +32°C° 0 mm 2 mps 705 mmHg 32%
16:00 +30°C° 0 mm 1 mps 705 mmHg 37%
17:00 +28°C° 0 mm 1 mps 705 mmHg 43%
18:00 +26°C° 0 mm 1 mps 705 mmHg 48%
19:00 +26°C° 0 mm 1 mps 705 mmHg 50%
20:00 +25°C° 0 mm 1 mps 706 mmHg 52%
21:00 +24°C° 0 mm 1 mps 706 mmHg 54%
22:00 +24°C° 0 mm 1 mps 706 mmHg 55%
23:00 +23°C° 0 mm 1 mps 706 mmHg 56%

18 Mayo, Martes

Tiempo Temperatura Precipitaciones Viento Presión Humedad
00:00 +23°C° 0 mm 1 mps 706 mmHg 57%
01:00 +23°C° 0 mm 1 mps 706 mmHg 57%
02:00 +22°C° 0 mm 1 mps 705 mmHg 58%
03:00 +22°C° 0 mm 1 mps 705 mmHg 59%
04:00 +22°C° 0 mm 1 mps 705 mmHg 60%
05:00 +21°C° 0 mm 1 mps 705 mmHg 61%
06:00 +21°C° 0 mm 1 mps 705 mmHg 62%
07:00 +23°C° 0 mm 1 mps 706 mmHg 57%
08:00 +25°C° 0 mm 1 mps 707 mmHg 52%
09:00 +25°C° 0 mm 0 mps 707 mmHg 47%
10:00 +29°C° 0 mm 1 mps 707 mmHg 42%
11:00 +31°C° 0 mm 1 mps 707 mmHg 37%
12:00 +33°C° 0 mm 1 mps 707 mmHg 33%
13:00 +33°C° 0 mm 1 mps 706 mmHg 33%
14:00 +32°C° 0 mm 1 mps 705 mmHg 33%
15:00 +32°C° 0 mm 1 mps 705 mmHg 33%
16:00 +30°C° 0 mm 1 mps 705 mmHg 38%
17:00 +28°C° 0 mm 1 mps 704 mmHg 43%
18:00 +26°C° 0 mm 1 mps 704 mmHg 47%
19:00 +25°C° 0 mm 1 mps 705 mmHg 48%
20:00 +25°C° 0 mm 1 mps 705 mmHg 49%
21:00 +24°C° 0 mm 1 mps 705 mmHg 50%
22:00 +24°C° 0 mm 1 mps 705 mmHg 51%
23:00 +23°C° 0 mm 1 mps 705 mmHg 52%

19 Mayo, Miércoles

Tiempo Temperatura Precipitaciones Viento Presión Humedad
00:00 +23°C° 0 mm 1 mps 705 mmHg 53%
01:00 +22°C° 0 mm 1 mps 705 mmHg 54%
02:00 +22°C° 0 mm 1 mps 705 mmHg 54%
03:00 +22°C° 0 mm 1 mps 705 mmHg 55%
04:00 +21°C° 0 mm 1 mps 705 mmHg 56%
05:00 +21°C° 0 mm 1 mps 705 mmHg 56%
06:00 +21°C° 0 mm 1 mps 705 mmHg 57%
07:00 +23°C° 0 mm 1 mps 706 mmHg 52%
08:00 +25°C° 0 mm 1 mps 707 mmHg 47%
09:00 +28°C° 0 mm 1 mps 707 mmHg 42%
10:00 +30°C° 0 mm 1 mps 707 mmHg 38%
11:00 +32°C° 0 mm 1 mps 707 mmHg 34%
12:00 +34°C° 0 mm 1 mps 707 mmHg 30%
13:00 +34°C° 0 mm 1 mps 706 mmHg 29%
14:00 +34°C° 0 mm 1 mps 705 mmHg 28%
15:00 +35°C° 0 mm 2 mps 705 mmHg 27%
16:00 +32°C° 0 mm 2 mps 705 mmHg 34%
17:00 +29°C° 0 mm 1 mps 704 mmHg 40%
18:00 +27°C° 0 mm 1 mps 704 mmHg 46%
19:00 +26°C° 0 mm 1 mps 704 mmHg 47%
20:00 +25°C° 0 mm 1 mps 705 mmHg 49%
21:00 +24°C° 0 mm 1 mps 705 mmHg 50%
22:00 +24°C° 0 mm 1 mps 705 mmHg 50%
23:00 +24°C° 0 mm 1 mps 705 mmHg 51%
Mostrar más

Necesitamos Su Consentimiento

Meteoprog y nuestros Proveedores de Servicios pueden almacenar y acceder a sus datos personales como cookies, identificadores de dispositivo u otras tecnologías similares de su dispositivo y procesar dichos datos para personalizar contenido y anuncios, además de ofrecer funciones de redes sociales y analizar el tráfico.

  • Almacenar y/o acceder a información en su dispositivo

    Se puede almacenar o acceder a cookies, identificadores de dispositivo u otra información de su dispositivo para los fines anteriormente indicados.

  • Anuncios y contenido personalizados, medición de anuncios y contenido, percepciones del público, y desarrollo de productos

    Los anuncios y el contenido pueden personalizarse en base a su perfil. Se pueden añadir más datos para personalizar mejor los anuncios y contenidos. Se puede medir el rendimiento de los anuncios y contenidos. Se puede obtener la percepción sobre el público que ha visto los anuncios y contenidos. Dichos datos pueden usarse para desarrollar o mejorar la experiencia del usuario, sistemas y software.

Al hacer clic en ‘Estoy De Acuerdo’ usted permitirá el uso de las cookies, identificadores de dispositivo, balizas web u otras tecnologías similares indicadas. Su configuración puede cambiarse desde el navegador de su dispositivo.

Para ciertos fines, los intereses legítimos pueden ser considerados por encima del consentimiento. Puede leer más sobre ello en nuestra Política de Privacidad y Cookies.